Volver al catálogo

IRIDIUM 33 DEB

ActivoPO
NORAD 38028·DEBRIS·🇺🇸 United States

Lanzado Sep 14, 1997 desde Baikonur Cosmodrome

Loading…

Próximos Pases (próximas 24 horas)

TLE

ActualizadoSource: Space-Track

Época: Sep 14, 2026, 16:15 UTC

1 38028U 97051YQ  26257.67749869  .00000675  00000-0  17993-3 0  9991
2 38028  86.3206 240.2160 0024942 288.3233  71.5257 14.46873528694849

Sigue IRIDIUM 33 DEB en tiempo real con AllMySat

Download on the App Store